EW4809 Weather Reports


Display with metric or nautical units.
time (UTC)temp
F
wind
direction
speed
MPH
gust
MPH
rain 1hr
in
rain 24hr
in
rain mn
in
humidity
%
barometer
mb
20260906093915 0 0.0 0.0 0.00 0.00 0.00 1013.6
20260906093326 0 0.0 0.0 0.00 0.00 0.00 1013.6
20260906092821 0 0.0 0.0 0.00 0.00 0.00 1013.6
20260906092231 0 0.0 0.0 0.00 0.00 0.00 1013.5
20260906091731 0 0.0 0.0 0.00 0.00 0.00 1013.5
20260906091225 0 0.0 0.0 0.00 0.00 0.00 1013.5
20260906090721 0 0.0 0.0 0.00 0.00 0.00 1013.6
20260906090218 72 45 0.0 0.0 0.00 0.00 0.00 92 1013.5
20260906085625 72 45 0.0 0.0 0.00 0.00 0.00 92 1013.4
20260906085122 72 45 0.0 0.0 0.00 0.00 0.00 92 1013.4
20260906084604 72 45 0.0 0.0 0.00 0.00 0.00 92 1013.4
20260906084102 72 45 0.0 0.0 0.00 0.00 0.00 92 1013.4
20260906083602 72 45 0.0 0.0 0.00 0.00 0.00 93 1013.4
20260906083100 72 45 0.0 0.0 0.00 0.00 0.00 93 1013.4
20260906082823 72 45 0.0 0.0 0.00 0.00 0.00 93 1013.5
20260906082059 72 45 0.0 0.0 0.00 0.00 0.00 93 1013.5
20260906081559 72 45 0.0 0.0 0.00 0.00 0.00 93 1013.3
20260906081316 72 45 0.0 0.0 0.00 0.00 0.00 93 1013.4
20260906080549 72 45 0.0 0.0 0.00 0.00 0.00 93 1013.4
20260906080050 72 45 0.0 0.0 0.00 0.00 0.00 93 1013.4
20260906075550 72 45 0.0 0.0 0.00 0.00 0.00 93 1013.5
20260906075047 72 45 0.0 0.0 0.00 0.00 0.00 93 1013.5
20260906074550 72 45 0.0 0.0 0.00 0.00 0.00 93 1013.5
20260906074045 72 45 0.0 0.0 0.00 0.00 0.00 93 1013.5
20260906073545 72 45 0.0 0.0 0.00 0.00 0.00 93 1013.5
20260906073044 72 45 0.0 0.0 0.00 0.00 0.00 92 1013.4
20260906072541 73 45 0.0 0.0 0.00 0.00 0.00 92 1013.3
20260906072043 73 45 0.0 0.0 0.00 0.00 0.00 92 1013.3
20260906071543 73 45 0.0 0.0 0.00 0.00 0.00 92 1013.3
20260906071040 73 45 0.0 0.0 0.00 0.00 0.00 92 1013.3
20260906070541 73 45 0.0 0.0 0.00 0.00 0.00 92 1013.4
20260906070256 73 45 0.0 0.0 0.00 0.00 0.00 92 1013.5
20260906065541 73 45 0.0 0.0 0.00 0.00 0.00 92 1013.5
20260906065040 74 45 0.0 1.0 0.00 0.00 0.00 92 1013.4
20260906064539 73 45 0.0 1.0 0.00 0.00 0.00 92 1013.4
20260906064257 73 46 0.0 0.0 0.00 0.00 0.00 92 1013.5
20260906063541 74 46 0.0 0.0 0.00 0.00 0.00 92 1013.5
20260906063040 74 46 0.0 0.0 0.00 0.00 0.00 92 1013.5
20260906062539 74 46 0.0 0.0 0.00 0.00 0.00 92 1013.6
20260906062039 74 46 0.0 0.0 0.00 0.00 0.00 92 1013.6
20260906061540 74 46 0.0 0.0 0.00 0.00 0.00 92 1013.7
20260906061258 74 46 0.0 0.0 0.00 0.00 0.00 92 1013.8
20260906060540 74 46 0.0 0.0 0.00 0.00 0.00 92 1013.9
20260906060302 74 46 0.0 0.0 0.00 0.00 0.00 92 1013.9
20260906055540 74 46 0.0 0.0 0.00 0.00 0.00 92 1013.8
20260906055041 74 46 0.0 0.0 0.00 0.00 0.00 91 1013.8
20260906054539 74 46 0.0 0.0 0.00 0.00 0.00 91 1013.7
20260906054306 74 46 0.0 0.0 0.00 0.00 0.00 91 1013.7
20260906053538 74 46 0.0 0.0 0.00 0.00 0.00 91 1013.7
20260906053303 75 46 0.0 0.0 0.00 0.00 0.00 91 1013.7
20260906052528 75 46 0.0 0.0 0.00 0.00 0.00 90 1013.7
20260906052023 75 46 0.0 0.0 0.00 0.00 0.00 90 1013.7
20260906051517 75 46 0.0 0.0 0.00 0.00 0.00 90 1013.7
20260906051011 75 46 0.0 0.0 0.00 0.00 0.00 90 1013.7
20260906050504 75 46 0.0 0.0 0.00 0.00 0.00 89 1013.8
20260906045959 75 46 0.0 0.0 0.00 0.00 0.00 89 1013.7
20260906045713 75 46 0.0 0.0 0.00 0.00 0.00 89 1013.7
20260906044947 76 46 0.0 0.0 0.00 0.00 0.00 89 1013.7
20260906044442 76 46 0.0 0.0 0.00 0.00 0.00 89 1013.7
20260906044158 76 46 0.0 0.0 0.00 0.00 0.00 88 1013.6
20260906043701 76 46 0.0 0.0 0.00 0.00 0.00 88 1013.6
20260906042938 77 46 0.0 0.0 0.00 0.00 0.00 88 1013.3
20260906042441 77 46 0.0 0.0 0.00 0.00 0.00 88 1013.2
20260906041936 77 46 0.0 0.0 0.00 0.00 0.00 87 1013.1
20260906041433 77 46 0.0 0.0 0.00 0.00 0.00 87 1013.2
20260906040933 77 46 0.0 0.0 0.00 0.00 0.00 87 1013.2
20260906040435 77 46 0.0 0.0 0.00 0.00 0.00 86 1013.2
20260906035932 78 46 0.0 0.0 0.00 0.00 0.00 86 1013.2
20260906035659 78 46 0.0 0.0 0.00 0.00 0.00 86 1013.2
20260906034930 78 46 0.0 0.0 0.00 0.00 0.00 87 1013.3
20260906034428 78 50 0.0 0.0 0.00 0.00 0.00 88 1013.4
20260906033928 78 50 0.0 1.0 0.00 0.00 0.00 87 1013.2
20260906033644 78 50 0.0 1.0 0.00 0.00 0.00 87 1013.1
20260906032926 78 50 0.0 0.0 0.00 0.00 0.00 88 1013.2
20260906032426 78 50 0.0 0.0 0.00 0.00 0.00 87 1013.1
20260906031926 78 50 0.0 0.0 0.00 0.00 0.00 88 1013.0
20260906031421 78 56 0.0 0.0 0.00 0.00 0.00 89 1013.0
20260906031143 78 58 0.0 0.0 0.00 0.00 0.00 89 1013.1
20260906030419 78 58 0.0 0.0 0.00 0.00 0.00 90 1013.1
20260906030149 78 55 0.0 4.0 0.00 0.00 0.00 91 1013.2
20260906025915 77 44 0.0 4.0 0.00 0.00 0.00 90 1013.1
20260906024920 78 325 0.0 0.0 0.00 0.00 0.00 90 1012.9
20260906024648 78 325 0.0 0.0 0.00 0.00 0.00 90 1012.9
20260906023919 78 325 0.0 0.0 0.00 0.00 0.00 90 1012.9
20260906023419 78 325 0.0 0.0 0.00 0.00 0.00 90 1012.8
20260906022918 78 325 0.0 0.0 0.00 0.00 0.00 90 1012.9
20260906022418 78 325 0.0 0.0 0.00 0.00 0.00 89 1012.9
20260906021913 78 325 0.0 0.0 0.00 0.00 0.00 89 1012.9
20260906021414 78 325 0.0 0.0 0.00 0.00 0.00 89 1012.7
20260906020914 78 325 0.0 0.0 0.00 0.00 0.00 88 1012.7
20260906020414 78 325 0.0 0.0 0.00 0.00 0.00 88 1012.7
20260906015913 78 325 0.0 0.0 0.00 0.00 0.00 87 1012.7
20260906015418 79 325 0.0 0.0 0.00 0.00 0.00 86 1012.7
20260906014916 79 325 0.0 0.0 0.00 0.00 0.00 86 1012.6
20260906014417 79 325 0.0 0.0 0.00 0.00 0.00 86 1012.6
20260906014141 79 325 0.0 0.0 0.00 0.00 0.00 85 1012.5
20260906013410 80 325 0.0 0.0 0.00 0.00 0.00 85 1012.6
20260906012911 80 325 0.0 0.0 0.00 0.00 0.00 85 1012.6
20260906012906 80 325 0.0 0.0 0.00 0.00 0.00 85 1012.5
20260906011911 81 325 0.0 0.0 0.00 0.00 0.00 83 1012.4
20260906011409 81 325 0.0 0.0 0.00 0.00 0.00 83 1012.1
20260906010910 81 270 0.0 0.0 0.00 0.00 0.00 82 1012.1
20260906010411 82 270 0.0 0.0 0.00 0.00 0.00 82 1012.0
20260906005909 82 270 0.0 0.0 0.00 0.00 0.00 82 1012.0
20260906005409 83 268 0.0 0.0 0.00 0.00 0.00 81 1012.0
20260906004910 83 266 0.0 0.0 0.00 0.00 0.00 79 1012.0
20260906004409 83 268 0.0 0.0 0.00 0.00 0.00 79 1012.1
20260906003909 83 268 0.0 1.0 0.00 0.00 0.00 79 1012.0
20260906003631 84 262 0.0 1.0 0.00 0.00 0.00 79 1012.0
20260906002910 84 11 0.0 0.0 0.00 0.00 0.00 78 1012.0
20260906002407 85 20 0.0 0.0 0.00 0.00 0.00 75 1012.0
20260906001907 85 20 0.0 0.0 0.00 0.00 0.00 76 1012.0
20260906001407 86 20 0.0 0.0 0.00 0.00 0.00 72 1012.1
20260906000911 86 20 0.0 0.0 0.00 0.00 0.00 72 1012.2
20260906000406 87 20 0.0 0.0 0.00 0.00 0.00 72 1012.2
20260906000122 87 20 0.0 0.0 0.00 0.00 0.00 69 1012.2
20260905235359 87 20 0.0 0.0 0.00 0.00 0.00 69 1012.3
20260905234900 88 20 0.0 0.0 0.00 0.00 0.00 69 1012.4
20260905234619 88 20 0.0 0.0 0.00 0.00 0.00 68 1012.5
20260905233847 88 20 0.0 0.0 0.00 0.00 0.00 67 1012.5
20260905233341 88 20 0.0 0.0 0.00 0.00 0.00 68 1012.6
20260905233054 88 20 0.0 0.0 0.00 0.00 0.00 70 1012.6
20260905232329 88 20 0.0 0.0 0.00 0.00 0.00 69 1012.6
20260905231822 88 20 0.0 0.0 0.00 0.00 0.00 70 1012.6
20260905231317 89 20 0.0 0.0 0.00 0.00 0.00 70 1012.6
20260905230811 89 20 0.0 0.0 0.00 0.00 0.00 68 1012.5
20260905230304 91 20 0.0 0.0 0.00 0.00 0.00 69 1012.3
20260905225759 92 20 0.0 0.0 0.00 0.00 0.00 61 1012.2
20260905225252 92 20 0.0 0.0 0.00 0.00 0.00 60 1012.1
20260905224747 92 20 0.0 0.0 0.00 0.00 0.00 65 1012.2
20260905224241 92 20 0.0 0.0 0.00 0.00 0.00 60 1012.1
20260905223735 92 20 0.0 0.0 0.00 0.00 0.00 57 1012.0
20260905223229 93 20 0.0 0.0 0.00 0.00 0.00 56 1011.9
20260905222722 93 20 0.0 1.0 0.00 0.00 0.00 60 1012.0
20260905222438 93 20 0.0 1.0 0.00 0.00 0.00 58 1012.0
20260905221711 93 20 0.0 0.0 0.00 0.00 0.00 58 1012.1
20260905221204 94 20 0.0 0.0 0.00 0.00 0.00 56 1012.1
20260905220659 94 20 0.0 0.0 0.00 0.00 0.00 54 1012.1
20260905220152 95 18 0.0 1.0 0.00 0.00 0.00 55 1012.1
20260905215646 95 18 0.0 1.0 0.00 0.00 0.00 53 1012.0
20260905215141 95 18 0.0 1.0 0.00 0.00 0.00 52 1012.1
20260905214634 96 323 0.0 2.0 0.00 0.00 0.00 52 1012.2
20260905214129 95 252 1.0 4.0 0.00 0.00 0.00 49 1012.2
20260905213622 95 305 0.0 5.0 0.00 0.00 0.00 51 1012.2
20260905213117 96 266 0.0 5.0 0.00 0.00 0.00 50 1012.2
20260905212610 96 308 0.0 1.0 0.00 0.00 0.00 50 1012.2
20260905212105 96 276 0.0 1.0 0.00 0.00 0.00 48 1012.2
20260905211600 96 286 0.0 2.0 0.00 0.00 0.00 48 1012.1
20260905211054 96 18 0.0 3.0 0.00 0.00 0.00 50 1012.1
20260905210547 96 43 1.0 5.0 0.00 0.00 0.00 51 1012.3
20260905210041 97 234 0.0 5.0 0.00 0.00 0.00 47 1012.4
20260905205535 98 354 0.0 3.0 0.00 0.00 0.00 46 1012.4
20260905205028 97 336 0.0 3.0 0.00 0.00 0.00 48 1012.4
20260905204524 96 310 0.0 3.0 0.00 0.00 0.00 48 1012.5
20260905204018 95 254 0.0 5.0 0.00 0.00 0.00 51 1012.6
20260905203510 96 300 1.0 5.0 0.00 0.00 0.00 51 1012.6
20260905203223 96 248 0.0 3.0 0.00 0.00 0.00 48 1012.6
20260905202459 96 231 0.0 3.0 0.00 0.00 0.00 47 1012.6
20260905201952 96 284 0.0 4.0 0.00 0.00 0.00 51 1012.7
20260905201448 96 307 0.0 4.0 0.00 0.00 0.00 48 1012.9
20260905200940 95 59 0.0 3.0 0.00 0.00 0.00 51 1012.9
20260905200655 96 294 1.0 7.0 0.00 0.00 0.00 49 1013.0
20260905195928 95 27 1.0 7.0 0.00 0.00 0.00 52 1013.1
20260905195422 96 287 1.0 5.0 0.00 0.00 0.00 48 1013.1
20260905194918 96 235 0.0 5.0 0.00 0.00 0.00 49 1013.1
20260905194630 96 244 0.0 4.0 0.00 0.00 0.00 50 1013.2
20260905193904 95 315 0.0 0.0 0.00 0.00 0.00 49 1013.3
20260905193359 95 309 1.0 3.0 0.00 0.00 0.00 49 1013.4
20260905192852 95 129 1.0 3.0 0.00 0.00 0.00 49 1013.5
20260905192608 95 200 1.0 3.0 0.00 0.00 0.00 49 1013.5
20260905191842 94 302 1.0 3.0 0.00 0.00 0.00 48 1013.5
20260905191335 95 222 0.0 3.0 0.00 0.00 0.00 49 1013.6
20260905190828 94 223 1.0 3.0 0.00 0.00 0.00 52 1013.8
20260905190323 93 62 1.0 4.0 0.00 0.00 0.00 52 1013.8
20260905190050 93 214 1.0 4.0 0.00 0.00 0.00 51 1013.8
20260905185323 93 188 1.0 4.0 0.00 0.00 0.00 51 1013.9
20260905184823 93 61 1.0 4.0 0.00 0.00 0.00 52 1013.9
20260905184321 94 211 1.0 4.0 0.00 0.00 0.00 49 1013.9
20260905184040 94 254 0.0 4.0 0.00 0.00 0.00 51 1014.0
20260905183320 94 208 1.0 5.0 0.00 0.00 0.00 51 1014.0
20260905183043 94 190 0.0 5.0 0.00 0.00 0.00 49 1014.0
20260905182319 94 224 0.0 3.0 0.00 0.00 0.00 50 1014.0
20260905181819 94 225 0.0 4.0 0.00 0.00 0.00 49 1014.3
20260905181322 94 61 1.0 4.0 0.00 0.00 0.00 51 1014.5
20260905180817 94 240 0.0 4.0 0.00 0.00 0.00 49 1014.6
20260905180317 93 327 0.0 4.0 0.00 0.00 0.00 53 1014.5
20260905180124 93 221 1.0 5.0 0.00 0.00 0.00 49 1014.6
20260905180015 92 358 1.0 5.0 0.00 0.00 0.00 50 1014.7
20260905174816 92 4 0.0 2.0 0.00 0.00 0.00 51 1014.7
20260905174314 92 207 0.0 4.0 0.00 0.00 0.00 52 1014.8
20260905173809 91 236 1.0 5.0 0.00 0.00 0.00 51 1014.7
20260905173304 91 210 1.0 5.0 0.00 0.00 0.00 51 1014.8
20260905173024 92 221 1.0 4.0 0.00 0.00 0.00 53 1014.9
20260905172305 91 245 0.0 4.0 0.00 0.00 0.00 52 1015.0
20260905172033 91 15 0.0 2.0 0.00 0.00 0.00 56 1015.0
20260905171304 91 258 0.0 2.0 0.00 0.00 0.00 53 1015.0
20260905170805 91 118 0.0 1.0 0.00 0.00 0.00 54 1015.0
20260905170305 91 78 0.0 2.0 0.00 0.00 0.00 55 1015.0
20260905165805 90 5 0.0 3.0 0.00 0.00 0.00 56 1015.1
20260905165306 90 271 0.0 3.0 0.00 0.00 0.00 53 1015.2
20260905164803 91 98 0.0 3.0 0.00 0.00 0.00 54 1015.4
20260905164303 90 248 0.0 3.0 0.00 0.00 0.00 54 1015.5
20260905163803 89 41 0.0 1.0 0.00 0.00 0.00 58 1015.6
20260905163258 88 1 0.0 1.0 0.00 0.00 0.00 58 1015.7
20260905162758 88 62 0.0 1.0 0.00 0.00 0.00 57 1015.8
20260905162300 88 6 0.0 3.0 0.00 0.00 0.00 57 1015.8
20260905161758 88 115 1.0 4.0 0.00 0.00 0.00 58 1015.7
20260905161259 87 231 0.0 4.0 0.00 0.00 0.00 58 1015.5
20260905160758 87 229 0.0 5.0 0.00 0.00 0.00 59 1015.5
20260905160258 87 83 1.0 5.0 0.00 0.00 0.00 60 1015.6
20260905160023 87 257 0.0 5.0 0.00 0.00 0.00 61 1015.6
20260905155258 87 190 0.0 5.0 0.00 0.00 0.00 64 1015.6
20260905155019 86 233 1.0 7.0 0.00 0.00 0.00 63 1015.6
20260905154524 86 149 1.0 7.0 0.00 0.00 0.00 62 1015.7
20260905153801 86 149 0.0 5.0 0.00 0.00 0.00 67 1015.6
20260905153301 85 117 1.0 7.0 0.00 0.00 0.00 65 1015.6
20260905152803 85 65 1.0 7.0 0.00 0.00 0.00 65 1015.6
20260905152259 85 222 0.0 2.0 0.00 0.00 0.00 65 1015.6
20260905152017 84 77 0.0 5.0 0.00 0.00 0.00 67 1015.5
20260905151521 84 112 1.0 5.0 0.00 0.00 0.00 66 1015.6
20260905150759 83 254 0.0 4.0 0.00 0.00 0.00 67 1015.6
20260905150300 83 94 0.0 3.0 0.00 0.00 0.00 67 1015.6
20260905145758 83 134 0.0 4.0 0.00 0.00 0.00 70 1015.6
20260905145259 83 70 0.0 4.0 0.00 0.00 0.00 71 1015.7
20260905144758 82 249 0.0 2.0 0.00 0.00 0.00 73 1015.9
20260905144256 82 221 0.0 3.0 0.00 0.00 0.00 74 1015.9
20260905143756 81 50 0.0 3.0 0.00 0.00 0.00 72 1016.0
20260905143255 81 246 0.0 3.0 0.00 0.00 0.00 71 1016.0
20260905142754 80 46 0.0 3.0 0.00 0.00 0.00 75 1016.1
20260905142254 80 57 0.0 2.0 0.00 0.00 0.00 74 1016.2
20260905142236 80 77 0.0 2.0 0.00 0.00 0.00 74 1016.3
20260905141253 80 62 0.0 0.0 0.00 0.00 0.00 77 1016.3
20260905140753 79 64 0.0 3.0 0.00 0.00 0.00 77 1016.4
20260905140254 78 73 0.0 3.0 0.00 0.00 0.00 79 1016.5
20260905135746 78 53 0.0 4.0 0.00 0.00 0.00 78 1016.4
20260905135240 77 67 0.0 4.0 0.00 0.00 0.00 79 1016.4
20260905134735 77 39 0.0 5.0 0.00 0.00 0.00 81 1016.3
20260905134228 76 56 1.0 5.0 0.00 0.00 0.00 81 1016.2
20260905133723 76 62 1.0 5.0 0.00 0.00 0.00 82 1016.4
20260905133222 75 51 2.0 6.0 0.00 0.00 0.00 83 1016.5
20260905132945 75 48 2.0 6.0 0.00 0.00 0.00 83 1016.8
20260905132221 74 57 2.0 6.0 0.00 0.00 0.00 85 1016.9
20260905131718 74 72 1.0 5.0 0.00 0.00 0.00 86 1016.8
20260905131220 74 108 0.0 3.0 0.00 0.00 0.00 88 1017.0
20260905130718 74 100 1.0 4.0 0.00 0.00 0.00 88 1017.2
20260905130218 74 103 1.0 4.0 0.00 0.00 0.00 88 1017.0
20260905125719 73 53 0.0 2.0 0.00 0.00 0.00 89 1016.8
20260905125221 0 0.0 0.0 0.00 0.00 0.00 1016.8
20260905124718 0 0.0 0.0 0.00 0.00 0.00 1016.8
20260905124124 0 0.0 0.0 0.00 0.00 0.00 1016.7
20260905123625 0 0.0 0.0 0.00 0.00 0.00 1016.7
20260905123253 0 0.0 0.0 0.00 0.00 0.00 1016.6
20260905122742 0 0.0 0.0 0.00 0.00 0.00 1016.7
20260905121928 0 0.0 0.0 0.00 0.00 0.00 1016.5
20260905121645 0 0.0 0.0 0.00 0.00 0.00 1016.5
20260905121055 0 0.0 0.0 0.00 0.00 0.00 1015.3
20260905120333 0 0.0 0.0 0.00 0.00 0.00 1015.3
20260905115826 0 0.0 0.0 0.00 0.00 0.00 1015.3
20260905115319 0 0.0 0.0 0.00 0.00 0.00 1015.2
20260905114725 0 0.0 0.0 0.00 0.00 0.00 1015.4
20260905114618 0 0.0 0.0 0.00 0.00 0.00 1015.9
20260905113847 0 0.0 0.0 0.00 0.00 0.00 1015.9
20260905113120 0 0.0 0.0 0.00 0.00 0.00 1015.5
20260905112530 0 0.0 0.0 0.00 0.00 0.00 1015.2
20260905112152 0 0.0 0.0 0.00 0.00 0.00 1015.3
20260905111648 0 0.0 0.0 0.00 0.00 0.00 1015.3
20260905110927 0 0.0 0.0 0.00 0.00 0.00 1015.6
20260905110423 0 0.0 0.0 0.00 0.00 0.00 1015.3
20260905105920 0 0.0 0.0 0.00 0.00 0.00 1015.3
20260905105548 0 0.0 0.0 0.00 0.00 0.00 1015.1
20260905105314 0 0.0 0.0 0.00 0.00 0.00 1015.1
20260905104315 0 0.0 0.0 0.00 0.00 0.00 1015.1
20260905103722 0 0.0 0.0 0.00 0.00 0.00 1015.2
20260905103220 0 0.0 0.0 0.00 0.00 0.00 1015.1
20260905102632 0 0.0 0.0 0.00 0.00 0.00 1014.7
20260905102121 0 0.0 0.0 0.00 0.00 0.00 1014.6
20260905101839 0 0.0 0.0 0.00 0.00 0.00 1014.4
20260905101244 0 0.0 0.0 0.00 0.00 0.00 1014.5
20260905100431 0 0.0 0.0 0.00 0.00 0.00 1014.4
20260905100315 0 0.0 0.0 0.00 0.00 0.00 1014.5
20260905095307 0 0.0 0.0 0.00 0.00 0.00 1014.3
20260905094725 0 0.0 0.0 0.00 0.00 0.00 1014.3
20260905094220 0 0.0 0.0 0.00 0.00 0.00 1014.2